Theta_e
302 302 302 303 303 303 304 305 305 308 309 309 309 308 308 311 311 312 313 313 313 313 310 312 313 314 313 314 318 316 318 319 322 324 325 324 325 324 323 322 324 323 324 326 332 336 337 330 331 334 330 330 331 331
302 302 302 303 302 303 303 304 304 307 308 309 309 308 307 310 312 311 312 313 313 311 309 312 312 312 312 312 314 313 316 317 321 321 322 323 328 325 324 328 324 328 328 330 329 329 329 328 329 329 330 329 331 330
302 301 302 302 302 302 303 304 304 305 307 308 308 309 307 308 310 312 312 312 312 312 310 309 312 313 313 313 313 314 312 313 319 319 320 320 325 322 326 325 325 323 326 328 326 327 328 326 330 330 330 329 330 329
301 302 302 301 301 302 302 303 304 305 306 308 309 309 306 307 309 312 312 313 312 312 314 310 312 312 314 314 313 314 314 315 314 317 317 318 322 319 322 322 321 321 324 324 323 324 324 325 328 328 329 330 329 329
301 301 301 301 301 302 302 303 304 304 305 307 308 308 306 307 308 311 313 313 312 312 314 312 311 314 313 315 316 315 314 315 316 318 321 322 317 318 317 318 320 319 319 322 323 322 322 323 323 326 326 328 330 329
301 301 301 301 301 302 303 303 304 304 305 307 309 308 306 307 309 312 315 314 314 312 313 314 309 310 313 317 316 315 316 315 318 318 318 318 316 318 320 319 317 317 316 321 323 321 319 320 324 325 326 325 328 328
300 300 300 301 302 302 303 304 304 305 306 308 309 307 306 307 308 312 314 315 313 312 312 314 311 309 317 318 316 315 318 316 316 316 317 316 316 319 321 322 319 317 317 318 318 321 323 323 325 324 324 326 325 326
300 300 301 302 302 303 304 304 305 306 309 309 307 307 308 308 309 310 312 314 314 312 312 315 313 312 315 316 316 315 316 315 315 316 317 319 320 319 321 318 318 318 317 317 318 319 321 321 322 322 323 326 326 326
300 301 301 302 303 303 305 305 306 309 308 308 308 308 309 310 312 317 315 313 313 314 316 316 316 315 312 314 312 313 314 318 315 319 321 319 318 321 319 319 319 319 319 319 320 319 322 323 323 322 323 325 324 324
301 301 302 302 303 303 306 307 309 308 309 310 310 313 316 317 317 314 313 314 313 313 313 315 311 314 313 313 314 314 316 318 319 319 317 320 318 317 318 317 318 319 320 321 321 321 325 326 324 324 324 325 323 323
301 302 302 303 303 304 307 308 308 309 314 313 313 317 316 314 315 316 317 316 315 316 313 313 311 313 313 318 318 314 317 318 320 319 322 322 321 317 315 316 316 318 319 319 320 320 319 319 320 323 323 325 322 321
302 302 303 303 304 306 308 309 307 310 310 308 308 310 313 313 317 319 320 318 318 319 316 315 315 313 315 313 316 315 318 318 321 317 320 322 319 315 314 316 317 318 317 320 322 322 321 323 322 322 321 324 323 321
303 302 303 303 305 308 309 309 307 309 309 311 313 316 317 316 318 322 321 320 317 319 317 317 318 316 315 313 315 317 320 319 317 320 321 320 315 315 318 319 319 319 321 323 321 321 322 322 324 325 323 324 324 326
303 303 303 305 308 308 308 308 307 309 308 312 319 316 320 320 319 318 319 318 316 317 314 312 314 315 314 318 318 320 319 319 320 319 320 317 317 316 318 320 321 323 323 323 322 321 321 321 320 322 324 325 322 325
303 303 306 309 309 308 308 308 308 308 311 314 317 316 319 317 316 317 317 314 313 311 310 311 311 313 314 316 315 318 319 317 314 315 319 316 316 317 320 321 322 320 319 318 318 320 320 322 321 321 323 324 325 326
303 307 310 310 309 309 309 308 308 309 314 314 316 318 317 317 317 317 314 315 312 311 309 310 315 314 315 314 319 318 317 317 315 317 316 314 316 317 318 319 321 321 319 315 317 318 319 320 320 321 323 325 325 325
303 307 310 310 311 312 310 308 311 314 316 319 319 317 318 319 319 315 316 314 313 315 313 313 315 315 313 316 318 318 318 316 315 313 313 313 314 316 316 317 320 320 319 318 318 320 319 320 321 321 321 322 325 325
304 308 310 310 311 310 313 310 314 317 320 318 318 316 317 316 317 315 314 314 315 317 313 315 313 314 314 316 317 313 313 313 312 312 312 312 312 314 315 316 316 319 319 320 320 320 319 319 319 320 321 321 322 323
303 305 309 309 307 307 312 315 314 318 317 315 315 314 315 316 315 314 313 313 313 315 315 313 314 312 312 313 314 312 313 312 311 310 311 312 312 313 313 314 315 316 317 319 320 319 319 319 319 320 320 320 320 320
306 308 309 309 307 309 316 316 319 317 318 315 315 315 319 316 314 313 313 312 313 314 315 317 314 312 311 311 310 310 310 310 310 310 311 310 311 311 312 313 313 315 316 317 318 318 318 317 319 319 319 319 319 319
308 314 313 312 309 309 312 314 317 316 316 318 316 317 319 318 320 318 316 313 315 314 313 313 313 312 312 312 312 312 311 310 309 309 310 310 312 314 314 313 314 315 314 314 315 315 315 316 316 318 316 316 318 319
309 313 314 313 314 315 314 317 316 316 319 317 317 316 318 318 318 317 315 316 315 313 313 313 313 312 312 310 310 312 313 312 312 312 313 313 311 310 312 311 312 311 312 314 314 314 314 314 315 314 314 313 315 317
308 312 313 316 318 312 312 317 317 318 319 319 320 322 321 317 314 314 318 318 315 313 313 312 313 314 311 313 312 312 313 312 310 311 312 313 313 313 311 312 312 313 311 313 314 314 313 313 313 314 314 314 314 313
312 313 317 318 318 313 316 319 319 320 320 321 321 322 320 318 317 320 321 317 316 313 312 311 312 311 311 311 309 310 313 313 311 311 312 311 309 311 312 312 312 313 313 313 313 314 313 313 312 312 313 314 313 313
315 313 311 307 315 320 321 322 322 319 319 318 322 322 322 321 320 318 318 312 313 312 312 312 312 310 310 308 309 312 312 313 311 309 313 312 313 312 312 313 312 313 313 312 312 313 313 313 312 312 313 314 314 314
315 313 310 318 318 320 322 322 323 322 320 324 322 319 321 321 320 317 315 312 311 311 313 312 312 313 310 310 310 310 312 312 312 311 313 313 313 313 311 309 309 312 312 313 313 313 312 312 312 312 313 313 313 314
311 315 315 314 316 320 322 321 322 322 323 323 321 320 320 322 321 317 315 312 311 315 314 315 315 312 310 312 313 314 314 313 313 314 313 313 313 313 313 311 310 311 312 312 312 312 313 313 312 312 313 312 312 313
316 316 319 318 319 319 322 322 323 323 321 318 317 319 322 319 318 317 314 317 315 314 313 315 314 314 313 313 313 314 314 314 313 310 310 311 312 312 312 312 311 311 312 312 311 310 310 311 311 312 312 311 311 311
317 317 318 319 320 321 323 322 321 318 319 319 320 320 319 316 316 313 314 315 313 312 312 312 312 312 313 312 312 312 313 312 311 310 309 307 307 312 312 310 310 308 309 310 308 307 308 306 306 309 311 310 308 307
317 315 318 319 320 319 322 319 320 320 319 316 317 317 318 316 317 313 313 312 312 311 312 313 313 313 312 312 311 312 312 312 311 311 309 308 309 311 312 311 310 309 310 309 308 306 305 305 307 309 308 308 307 305
315 316 318 318 319 318 321 321 318 319 318 319 318 319 319 318 317 316 313 312 312 312 312 312 313 313 312 312 311 310 310 312 313 311 312 311 309 309 309 311 310 310 309 309 309 307 307 307 307 308 309 308 308 308
316 317 318 319 320 321 322 321 319 320 320 321 320 320 319 318 317 315 314 313 313 312 313 312 312 312 313 313 313 312 312 311 309 310 310 309 309 309 308 309 309 309 308 308 308 308 307 308 309 308 308 307 308 308
323 318 318 317 318 321 321 323 321 324 323 322 321 320 317 319 320 317 318 313 312 312 312 313 312 313 313 313 313 313 313 311 310 310 310 310 310 310 309 309 309 308 308 308 307 307 308 308 308 308 308 308 308 308
Wind_Speed
13 14 15 14 14 14 14 13 11 11 11 12 15 17 16 16 15 7 2 3 0 2 6 4 2 2 3 2 0 5 5 5 5 5 2 3 1 4 3 3 3 4 3 4 2 5 9 10 5 3 3 2 5 7
13 14 15 15 15 15 15 14 12 12 12 10 12 15 14 15 13 7 2 4 3 4 6 15 29 31 23 26 1 3 4 2 3 3 2 2 3 4 3 3 3 1 2 2 4 4 2 1 2 6 4 1 3 6
13 14 14 15 16 16 16 15 13 12 13 11 10 13 13 11 11 6 5 6 4 2 5 4 5 12 17 19 22 2 3 3 3 4 3 3 2 2 2 4 4 7 1 2 4 3 6 6 3 3 6 5 4 3
13 14 15 15 15 16 15 15 13 13 14 13 9 12 12 10 11 7 4 3 3 3 3 6 13 17 12 11 16 21 10 7 3 3 3 3 2 3 3 4 3 4 2 3 5 7 8 6 5 5 7 7 5 3
12 13 15 16 16 16 16 15 13 14 15 14 11 12 12 11 13 7 7 8 5 1 3 6 25 9 18 16 14 13 11 3 1 0 2 3 3 1 3 1 4 4 6 4 5 8 4 7 5 4 6 8 3 3
13 14 15 14 16 15 16 15 14 15 16 14 10 12 11 11 11 4 2 4 12 5 1 4 6 7 20 16 10 7 2 3 3 3 3 3 4 3 3 4 8 6 3 7 4 5 8 9 6 8 7 6 4 3
14 15 14 15 17 16 17 16 15 16 16 12 11 12 10 11 7 4 2 2 6 7 1 4 4 5 7 3 5 3 3 2 3 2 2 3 3 3 3 12 8 14 15 15 13 5 5 12 8 8 7 9 6 5
14 13 14 16 18 17 17 15 16 16 13 12 13 11 11 11 8 8 11 14 10 2 2 3 4 5 4 3 3 2 3 2 2 2 2 2 1 3 4 7 11 13 13 13 13 10 15 11 4 8 8 5 7 7
13 14 15 16 17 19 16 15 15 15 13 13 12 12 4 3 4 2 5 7 10 1 2 2 2 4 3 2 2 3 2 2 2 2 3 2 2 4 3 5 7 7 7 10 11 10 10 8 7 9 8 8 6 6
12 14 14 15 17 18 14 13 15 15 16 14 5 1 1 3 5 11 3 2 2 1 2 3 2 3 2 2 3 2 1 2 2 3 2 3 4 2 3 6 7 8 9 9 7 8 3 5 6 7 7 6 9 9
14 13 14 15 17 16 11 12 13 14 4 2 1 1 3 8 2 2 2 2 3 3 3 4 5 4 2 2 3 1 2 2 2 3 2 2 2 3 6 9 8 8 10 12 8 11 11 8 8 8 6 7 6 8
14 14 15 17 17 13 9 11 10 6 4 9 9 6 3 2 2 2 3 2 3 4 3 4 5 5 2 3 2 1 2 2 4 2 2 3 2 4 7 12 13 12 12 14 12 11 6 6 8 7 7 7 7 17
14 15 17 19 16 11 11 9 6 7 10 1 2 2 3 2 1 4 4 2 3 4 4 4 3 4 2 2 1 2 3 4 2 3 2 3 4 8 11 11 13 14 12 9 8 8 8 8 11 4 7 9 12 16
16 17 20 17 15 15 11 8 4 3 3 2 4 3 4 4 5 5 5 5 5 4 3 3 3 4 4 4 3 3 3 2 2 1 2 3 5 10 11 11 11 11 9 8 5 4 7 7 9 8 9 9 16 12
18 20 16 6 7 7 2 3 2 2 3 3 3 4 6 5 3 4 5 3 4 1 1 3 2 3 2 2 3 2 0 2 2 3 3 3 8 9 10 11 9 7 8 6 7 7 7 2 3 1 5 11 18 17
18 13 3 3 3 6 7 5 4 3 4 3 4 3 4 2 4 3 3 3 2 3 1 2 1 2 3 2 2 3 1 3 3 3 2 4 6 8 10 12 9 6 7 6 12 14 16 15 12 10 11 13 17 21
12 4 4 4 8 15 7 6 5 4 4 4 4 5 6 6 5 5 3 4 3 3 1 1 1 4 1 1 1 3 3 3 4 3 2 2 5 7 8 11 7 8 8 9 7 14 17 13 13 19 10 19 15 16
5 4 8 12 16 16 2 9 4 4 7 5 3 5 4 4 2 1 2 3 1 2 3 4 3 2 3 2 2 3 4 3 3 3 2 2 4 7 8 8 12 10 7 14 12 10 14 16 13 8 12 8 17 14
17 14 11 9 10 5 3 6 6 4 6 4 4 4 2 2 2 1 2 1 3 3 1 2 3 2 3 3 4 3 3 3 2 2 2 2 3 7 9 13 12 11 12 11 9 7 10 18 15 16 14 13 11 14
16 15 13 9 8 3 4 4 7 3 4 4 2 3 2 2 2 2 4 1 2 2 3 1 3 4 4 3 3 3 2 1 1 2 2 2 2 5 8 11 9 9 12 13 12 11 13 15 16 14 14 14 14 14
8 3 3 9 9 10 3 3 3 4 4 3 3 1 1 3 3 3 4 2 2 2 3 3 3 2 3 4 4 2 1 2 1 2 2 2 2 4 7 11 14 7 6 7 6 9 11 9 8 8 8 9 9 9
4 5 3 8 5 6 4 8 4 4 2 4 4 3 2 1 3 4 3 2 3 3 4 4 3 3 2 1 1 1 2 1 3 3 3 3 1 2 3 7 9 6 6 3 7 5 6 8 8 12 18 18 17 16
7 3 4 6 4 1 6 3 3 4 3 3 1 1 2 0 2 3 3 2 1 1 5 5 8 9 5 2 2 1 2 2 1 2 2 1 2 2 3 4 4 4 5 4 3 4 3 3 6 6 6 6 11 17
4 3 3 3 5 4 4 3 3 3 3 3 2 3 3 3 1 3 4 4 1 2 3 6 9 3 1 5 2 4 5 1 3 3 4 3 1 2 4 5 6 5 1 0 4 3 3 1 1 5 5 5 6 8
2 4 4 5 4 3 4 3 4 2 2 1 2 4 2 3 3 3 2 3 2 2 3 6 6 4 3 3 2 8 8 6 3 3 5 6 6 2 3 3 0 3 4 1 3 3 3 1 2 3 4 6 6 9
4 4 6 5 4 4 4 2 2 3 4 4 4 3 2 3 3 5 3 4 4 4 5 5 5 3 3 8 4 4 12 10 10 3 6 9 8 5 2 2 1 2 0 5 1 3 4 2 1 1 2 4 6 9
3 5 5 5 3 3 3 3 1 1 3 1 2 1 1 3 5 4 2 3 3 10 19 21 17 11 9 15 17 17 15 13 11 5 2 8 11 10 11 6 4 2 6 8 7 2 6 11 6 9 2 4 6 6
5 4 6 4 4 4 4 2 2 1 2 2 3 1 2 3 2 3 4 10 16 12 9 14 21 21 19 14 19 17 17 12 7 2 5 5 9 11 6 4 8 8 10 7 6 2 3 9 9 7 11 11 7 5
4 4 2 7 5 3 2 3 3 3 2 2 2 1 2 2 2 3 9 16 14 9 4 10 9 8 13 14 9 15 18 14 5 3 1 2 2 2 12 13 7 8 11 11 3 1 3 6 7 9 13 12 7 5
5 5 3 3 2 3 3 5 3 3 1 3 3 2 1 2 2 18 20 16 10 9 12 11 15 13 15 11 7 19 20 19 13 10 5 5 6 6 12 12 9 10 10 10 5 5 4 4 11 16 15 9 4 5
3 4 4 4 4 4 5 1 1 1 1 2 3 1 2 3 4 10 22 19 17 18 15 14 18 19 15 15 8 10 9 14 14 13 12 13 13 11 10 15 9 7 8 14 10 7 6 6 14 19 13 8 6 5
3 6 5 4 2 3 1 1 1 0 1 3 0 1 1 1 2 2 14 23 18 11 12 12 10 14 19 18 12 13 14 14 12 18 18 14 12 12 11 14 13 11 7 6 6 9 8 7 9 8 9 11 5 7
2 4 1 1 2 2 2 2 1 3 1 2 2 5 5 5 6 4 10 21 21 16 15 12 7 6 19 17 14 13 12 20 16 13 14 13 11 12 14 13 12 9 6 5 13 8 9 10 8 7 7 7 11 12
Wind_Direction
334 336 339 340 333 330 329 323 314 318 322 335 348 356 360 3 8 7 354 350 310 251 276 250 293 230 345 249 32 293 0 350 9 37 65 281 214 239 232 238 224 225 215 222 169 190 247 352 4 59 225 358 8 354
330 330 336 336 332 325 326 326 322 318 319 323 336 347 351 357 358 4 309 343 284 226 252 283 277 265 247 235 149 300 206 236 237 52 12 344 341 329 358 293 351 281 173 242 171 238 157 237 229 270 276 177 11 5
327 327 328 332 328 323 322 323 329 325 319 315 324 339 342 342 345 329 294 325 304 277 296 315 259 335 301 255 229 206 306 243 323 169 177 228 249 101 298 276 1 354 25 96 26 261 310 329 339 284 277 269 80 74
323 321 322 324 321 319 319 321 321 318 317 317 313 327 334 327 330 313 275 306 321 278 289 280 311 311 300 281 233 224 242 284 238 129 162 185 185 180 235 245 168 220 358 243 255 282 289 232 202 253 288 301 278 102
321 319 318 322 321 321 321 320 324 320 315 314 311 323 325 316 321 291 277 263 242 183 284 293 309 294 316 330 257 253 250 235 196 148 175 216 208 209 262 269 234 196 228 214 244 257 204 257 253 258 292 301 268 220
319 317 319 327 328 323 322 323 318 311 309 307 309 313 314 317 329 12 313 223 216 210 286 301 297 293 306 319 237 254 250 199 173 185 225 246 231 145 247 242 229 231 242 190 229 249 219 255 312 268 264 268 275 255
314 313 318 322 319 325 325 319 317 314 308 304 306 312 312 313 299 205 226 108 187 194 261 295 295 268 294 323 360 0 341 248 145 215 220 205 235 158 263 264 260 282 273 273 266 211 252 249 243 256 248 240 186 188
311 318 322 320 319 326 324 317 309 307 307 310 313 310 304 300 279 269 257 225 195 214 200 280 277 318 358 350 334 352 343 352 299 223 297 222 245 175 244 252 254 264 265 264 262 227 241 253 252 251 247 226 193 195
309 315 315 316 318 321 321 313 308 312 314 311 304 304 286 206 215 195 122 163 184 252 266 233 260 270 1 340 323 338 35 296 268 243 251 127 227 222 266 323 321 325 299 286 285 267 253 228 273 293 276 238 195 206
306 313 310 312 313 319 316 315 320 320 315 294 288 194 258 200 145 132 127 145 184 211 227 249 264 273 90 2 305 337 330 293 318 256 295 210 244 238 352 321 297 315 316 322 332 301 177 226 244 273 231 215 209 198
313 316 309 309 315 319 316 317 327 339 51 55 346 55 59 146 213 192 194 203 177 233 208 228 207 218 276 172 241 184 313 267 279 274 255 278 274 318 301 312 304 297 296 289 279 272 253 213 225 218 221 237 194 169
316 317 311 309 314 313 307 315 330 353 350 325 290 295 213 220 213 249 209 180 222 246 206 201 219 193 221 115 133 223 264 291 253 319 291 266 260 275 317 314 304 292 283 294 295 269 258 256 240 212 197 231 164 175
313 312 308 307 308 295 294 300 310 314 324 234 199 248 153 222 230 221 219 224 236 216 230 216 237 143 135 104 198 179 244 241 344 238 267 245 299 315 315 311 303 304 300 293 303 281 278 280 285 252 240 214 181 172
313 312 306 305 303 289 270 272 277 308 283 220 200 265 212 214 230 197 208 210 235 206 224 184 172 172 176 165 188 222 229 270 296 276 272 279 309 311 319 313 315 316 324 323 310 287 275 273 276 278 254 236 161 167
316 311 311 332 34 42 101 170 212 275 257 243 217 236 229 237 288 245 246 245 271 218 51 336 351 121 245 239 186 155 43 330 238 250 255 308 312 314 327 325 329 307 324 339 324 329 317 188 121 39 331 186 167 171
318 324 78 119 14 356 324 291 261 216 249 227 239 266 260 218 288 315 324 286 339 323 357 67 32 24 274 201 129 128 210 231 244 248 275 302 315 330 342 335 342 310 332 342 1 359 20 47 47 19 42 126 148 143
317 236 198 236 317 330 298 199 191 221 241 227 244 215 242 266 237 229 191 228 239 99 221 79 240 215 319 1 289 165 213 217 280 279 274 285 323 331 340 341 357 322 342 343 34 7 30 45 35 35 17 12 104 126
264 295 270 283 314 335 221 203 242 222 233 240 241 256 220 216 242 321 190 233 146 177 124 203 147 98 222 258 228 224 247 263 249 221 211 288 324 332 359 339 343 352 319 306 350 61 37 33 48 72 72 38 48 68
274 272 259 279 311 312 263 213 206 255 240 240 248 261 252 216 234 19 270 253 186 185 135 65 115 187 236 236 217 240 254 239 244 268 212 211 335 348 353 356 349 14 25 51 65 47 53 52 48 34 28 52 53 48
286 278 263 254 242 244 264 261 200 240 266 247 256 260 207 171 18 316 290 258 80 70 50 97 216 217 187 224 202 203 220 236 84 3 268 273 333 350 349 339 332 14 57 67 62 68 66 53 49 54 40 33 27 21
300 14 189 190 196 221 270 279 266 220 253 253 264 235 256 159 80 27 287 250 79 194 190 213 165 160 141 120 81 67 33 87 198 179 206 266 289 334 338 352 27 51 56 55 55 49 65 65 65 62 50 49 59 61
257 305 226 197 236 204 242 237 225 279 290 245 290 209 191 150 205 201 218 173 225 218 165 153 165 136 94 325 302 206 195 80 75 111 124 141 64 343 344 348 14 2 9 96 92 79 80 84 99 95 91 85 80 78
291 237 235 220 223 226 255 231 215 229 228 261 332 99 289 306 270 2 281 184 155 217 136 124 132 146 157 195 138 164 259 167 155 192 181 201 212 257 297 321 324 346 5 26 136 134 120 111 76 120 110 96 86 86
262 259 245 237 182 249 273 248 233 256 329 320 257 261 219 130 199 36 332 326 246 176 130 143 133 131 81 131 204 237 212 174 152 135 171 176 273 279 248 283 317 323 329 359 71 122 167 191 103 147 145 148 117 113
226 264 133 277 274 239 239 245 212 98 257 300 298 287 7 81 45 206 245 285 290 225 190 163 163 168 165 193 204 228 227 212 194 229 239 244 269 223 219 257 330 219 303 137 79 34 2 109 69 100 85 97 135 155
236 233 172 227 217 205 233 304 327 162 205 244 215 319 38 103 176 238 223 201 213 188 191 188 185 179 219 200 186 218 233 227 234 221 235 207 219 233 244 294 198 263 355 223 89 350 336 195 170 21 118 107 123 148
243 258 234 222 245 302 295 252 228 222 280 93 229 55 319 191 212 239 202 208 182 214 213 208 200 188 194 210 216 231 229 220 223 276 113 201 220 241 240 185 192 145 162 201 163 91 148 179 194 195 152 148 119 151
233 264 227 250 212 223 238 225 295 297 271 272 94 40 300 3 293 215 199 189 193 194 182 199 212 214 220 220 216 221 220 220 211 174 153 121 97 158 175 185 159 136 174 162 145 151 141 160 167 168 179 166 153 167
245 251 227 270 274 271 208 159 203 242 210 103 115 219 262 278 279 140 134 157 168 179 157 177 195 184 186 193 197 196 202 187 187 76 102 226 346 118 179 159 146 153 146 139 134 47 99 84 98 127 139 151 143 148
233 199 235 249 261 248 239 174 200 231 152 191 159 49 297 257 25 158 155 160 171 210 228 213 197 194 193 202 195 185 192 204 206 187 183 223 237 214 184 173 162 175 177 169 176 146 134 136 127 144 143 143 141 160
252 159 199 214 243 256 223 257 93 86 71 72 69 163 237 306 343 169 180 179 204 217 230 234 221 219 211 199 179 158 213 217 218 225 208 193 160 154 143 164 163 158 165 202 212 203 172 178 154 175 174 187 189 197
209 203 205 237 227 238 92 101 68 9 281 107 139 30 213 54 268 270 196 196 208 229 234 223 233 243 202 186 202 196 203 184 161 157 165 167 165 158 154 172 169 170 185 205 200 184 162 150 154 163 152 170 191 223
203 206 121 24 312 218 281 117 59 319 62 96 160 198 210 189 220 248 197 196 204 217 234 237 233 160 166 169 187 192 193 186 181 180 183 175 171 185 172 166 182 177 180 142 164 171 183 182 177 192 213 211 221 222